Location: Ajisawe
(8.4333°N, 4.3833°E)
Time: 05:39:31
(UTC+00:00)

Altair - All Passes

Search period start: 14 April 2021 00:00
Search period end: 24 April 2021 00:00
Orbit: 1501 x 1683 km, 47.2° (Epoch: 12 April)

Date Brightness Start Highest point End Pass type
(mag) Time Alt. Az. Time Alt. Az. Time Alt. Az.
14 Apr - 03:13:12 10° SSW 03:22:18 38° SE 03:31:10 10° ENE visible
14 Apr - 05:17:19 10° WSW 05:26:56 50° NW 05:36:17 10° NNE daylight
14 Apr - 13:54:20 10° NNW 14:02:16 32° NE 14:10:13 10° ESE daylight
14 Apr - 15:58:02 10° NW 16:06:52 54° SW 16:15:54 10° SSE daylight
15 Apr - 02:48:19 10° S 02:57:06 33° SE 03:05:41 10° ENE visible
15 Apr - 04:51:54 10° SW 05:01:43 56° NW 05:11:15 10° NNE visible
15 Apr - 07:05:36 10° NW 07:07:45 11° NW 07:09:55 10° NNW daylight
15 Apr - 13:29:26 10° NNW 13:37:03 29° NE 13:44:39 10° E daylight
15 Apr - 15:32:46 10° NW 15:41:43 60° SW 15:50:52 10° SSE daylight
16 Apr - 02:23:28 10° S 02:31:54 30° SE 02:40:07 10° ENE visible
16 Apr - 04:26:33 10° SW 04:36:30 62° NW 04:46:11 10° NNE visible
16 Apr - 06:38:34 10° WNW 06:42:22 13° NW 06:46:07 10° NNW daylight
16 Apr - 13:04:34 10° N 13:11:49 26° NE 13:19:02 10° E daylight
16 Apr - 15:07:31 10° NW 15:16:35 68° SW 15:25:48 10° SSE daylight
17 Apr - 01:58:41 10° S 02:06:40 26° SE 02:14:31 10° ENE visible
17 Apr - 04:01:14 10° SW 04:11:17 69° NW 04:21:05 10° NNE visible
17 Apr - 06:12:06 10° WNW 06:16:58 14° NW 06:21:48 10° N daylight
17 Apr - 12:39:43 10° N 12:46:33 23° NE 12:53:21 10° E daylight
17 Apr - 14:42:19 10° NW 14:51:26 76° SW 15:00:42 10° SE daylight
17 Apr - 16:52:47 10° WSW 16:56:00 12° SW 16:59:16 10° SSW daylight
18 Apr - 01:33:58 10° S 01:41:27 23° SE 01:48:48 10° E visible
18 Apr - 03:35:56 10° SW 03:46:05 76° NW 03:55:58 10° NE visible
18 Apr - 05:45:52 10° WNW 05:51:36 17° NW 05:57:17 10° N daylight
18 Apr - 12:14:56 10° N 12:21:17 20° NE 12:27:35 10° E daylight
18 Apr - 14:17:08 10° NW 14:26:18 84° SW 14:35:35 10° SE daylight
18 Apr - 16:26:18 10° W 16:30:47 14° SW 16:35:20 10° SSW daylight
19 Apr - 01:09:21 10° S 01:16:13 20° SE 01:22:59 10° E visible
19 Apr - 03:10:41 10° SW 03:20:52 84° NW 03:30:50 10° NE visible
19 Apr - 05:19:49 10° W 05:26:15 19° NW 05:32:37 10° N daylight
19 Apr - 11:50:12 10° N 11:55:59 18° NE 12:01:44 10° E daylight
19 Apr - 13:51:58 10° NW 14:01:09 87° NE 14:10:25 10° SE daylight
19 Apr - 16:00:13 10° W 16:05:35 17° SW 16:11:03 10° SSW daylight
20 Apr - 00:44:52 10° SSE 00:50:59 18° SE 00:57:02 10° E visible
20 Apr - 02:45:28 10° SW 02:55:40 88° SE 03:05:39 10° NE visible
20 Apr - 04:53:53 10° W 05:00:56 21° NW 05:07:53 10° N visible
20 Apr - 11:25:34 10° N 11:30:41 16° NE 11:35:45 10° ENE daylight
20 Apr - 13:26:50 10° NW 13:36:01 79° NE 13:45:14 10° SE daylight
20 Apr - 15:34:19 10° W 15:40:24 20° SW 15:46:34 10° S daylight
21 Apr - 00:20:32 10° SSE 00:25:44 15° SE 00:30:53 10° E visible
21 Apr - 02:20:17 10° SW 02:30:28 80° SE 02:40:27 10° NE visible
21 Apr - 04:28:01 10° W 04:35:36 24° NW 04:43:05 10° N visible
21 Apr - 11:01:02 10° N 11:05:21 14° NE 11:09:36 10° ENE daylight
21 Apr - 13:01:43 10° NW 13:10:52 71° NE 13:20:01 10° SE daylight
21 Apr - 15:08:34 10° W 15:15:13 22° SW 15:21:59 10° S daylight
21 Apr - 23:56:32 10° SSE 00:00:28 13° SE 00:04:24 10° ESE night (unlit)
22 Apr - 01:55:08 10° SSW 02:05:16 72° SE 02:15:13 10° NE visible
22 Apr - 04:02:16 10° W 04:10:18 27° NW 04:18:14 10° N visible
22 Apr - 10:36:45 10° NNE 10:39:59 12° NE 10:43:13 10° ENE daylight
22 Apr - 12:36:37 10° NNW 12:45:42 63° NE 12:54:45 10° SE daylight
22 Apr - 14:42:55 10° WNW 14:50:03 26° SW 14:57:18 10° S daylight
22 Apr - 23:33:25 10° SE 23:35:12 11° SE 23:36:59 10° ESE night (unlit)
23 Apr - 01:30:01 10° SSW 01:40:04 65° SE 01:49:58 10° NE visible
23 Apr - 03:36:34 10° WSW 03:45:01 30° NW 03:53:21 10° NNE visible
23 Apr - 10:13:08 10° NNE 10:14:37 10° NE 10:16:05 10° NE daylight
23 Apr - 12:11:33 10° NNW 12:20:33 56° NE 12:29:28 10° SE daylight
23 Apr - 14:17:21 10° WNW 14:24:54 29° SW 14:32:33 10° S daylight
